Date String (YYYY-MM-DD hh:mm:ss) UTC,Instrument flags,Ambient pressure (hPa),Sample flow (lpm),Bypass flow (lpm),Sample temperature (°C),Ambient temperature (°C),ASC tube jacket temperature (°C),LED temperature (°C),Box temperature (°C),Sample RH (%),Span deviation,Mass concentration (μg/m³),Mass concentration (μg/m³),Mass concentration (μg/m³)
DateTimeUTC,F1_M11,P_M11,Q1_M11,Q2_M11,T1_M11,T2_M11,T3_M11,T4_M11,T5_M11,U1_M11,ZSPAN_M11,X0_M11,X2_M11,X1_M11
2021-12-12 11:00:00,,0819.5,5.00,0.00,22.1,21.4,00.0,31.0,23.9,08.6,0000.5,0009.54,0004.29,0003.36
2021-12-12 11:01:00,,0819.7,5.01,0.00,22.1,21.4,00.0,31.0,23.9,08.4,0000.0,0009.43,0004.22,0003.33
2021-12-12 11:02:00,,0819.7,4.99,0.00,22.1,21.5,00.0,31.0,23.9,08.6,0000.0,0009.20,0004.14,0003.29
2021-12-12 11:03:00,,0819.7,5.01,0.00,22.1,21.5,00.0,31.0,23.9,08.6,0000.0,0009.35,0004.07,0003.25
2021-12-12 11:04:00,,0819.7,4.98,0.00,22.1,21.5,00.0,31.1,23.9,08.7,0000.0,0009.20,0004.02,0003.21
2021-12-12 11:05:00,,0819.7,5.01,0.00,22.1,21.5,00.0,31.1,23.9,08.7,0000.0,0009.10,0003.96,0003.16
2021-12-12 11:06:00,,0819.7,4.99,0.00,22.1,21.5,00.0,31.1,23.9,08.8,0000.0,0009.06,0003.91,0003.12
2021-12-12 11:07:00,,0819.7,5.01,0.00,22.2,21.6,00.0,31.1,23.9,08.7,0000.0,0008.94,0003.83,0003.06
2021-12-12 11:08:00,,0819.5,5.00,0.00,22.2,22.2,00.0,31.1,24.1,08.5,0000.0,0008.92,0003.80,0003.02
2021-12-12 11:09:00,,0819.4,5.00,0.00,22.4,23.0,00.0,31.2,24.4,08.5,0000.0,0009.16,0003.81,0002.97
2021-12-12 11:10:00,,0819.5,5.00,0.00,22.5,23.1,00.0,31.2,24.5,08.5,0000.0,0008.79,0003.78,0002.93
2021-12-12 11:11:00,,0819.6,5.02,0.00,22.5,22.9,00.0,31.3,24.5,08.5,0000.0,0008.65,0003.73,0002.90
2021-12-12 11:12:00,,0819.7,5.00,0.00,22.6,22.7,00.0,31.3,24.4,08.4,0000.0,0008.45,0003.69,0002.88
2021-12-12 11:13:00,,0819.7,4.99,0.00,22.6,22.6,00.0,31.3,24.4,08.3,0000.0,0008.59,0003.71,0002.92
2021-12-12 11:14:00,,0819.6,5.00,0.00,22.6,22.4,00.0,31.3,24.4,08.2,0000.0,0008.53,0003.72,0002.96
2021-12-12 11:15:00,,0819.6,5.01,0.00,22.6,22.4,00.0,31.4,24.4,08.2,0000.0,0009.97,0003.73,0002.99
2021-12-12 11:16:00,,0819.7,4.99,0.00,22.6,22.3,00.0,31.4,24.4,08.2,0000.0,0010.88,0003.78,0003.04
2021-12-12 11:17:00,,0819.8,5.02,0.00,22.6,22.2,00.0,31.4,24.3,08.3,0000.0,0011.08,0003.82,0003.10
2021-12-12 11:18:00,,0819.9,4.99,0.00,22.5,22.0,00.0,31.4,24.2,08.5,0000.0,0010.96,0003.89,0003.15
2021-12-12 11:19:00,,0819.9,4.98,0.00,22.4,21.8,00.0,31.4,24.0,08.6,0000.0,0010.97,0003.96,0003.19
2021-12-12 11:20:00,,0819.7,5.00,0.00,22.4,21.8,00.0,31.4,24.0,08.5,0000.0,0011.04,0003.98,0003.22
2021-12-12 11:21:00,,0819.4,5.01,0.00,22.4,21.8,00.0,31.4,24.1,08.5,0000.0,0011.02,0003.99,0003.24
2021-12-12 11:22:00,,0819.3,5.01,0.00,22.4,21.7,00.0,31.4,24.1,08.7,0000.0,0011.39,0004.03,0003.24
2021-12-12 11:23:00,,0819.4,4.98,0.00,22.4,21.7,00.0,31.4,24.1,08.6,0000.0,0012.03,0004.05,0003.24
2021-12-12 11:24:00,,0819.3,5.01,0.00,22.4,21.7,00.0,31.4,24.1,08.6,0000.0,0012.21,0004.02,0003.20
2021-12-12 11:25:00,,0819.3,5.00,0.00,22.4,21.7,00.0,31.4,24.1,08.6,0000.0,0012.09,0004.00,0003.17
2021-12-12 11:26:00,,0819.5,4.99,0.00,22.4,21.7,00.0,31.4,24.1,08.6,0000.0,0011.22,0004.00,0003.14
2021-12-12 11:27:00,,0819.5,5.01,0.00,22.3,21.7,00.0,31.4,24.0,08.8,0000.0,0010.37,0003.94,0003.10
2021-12-12 11:28:00,,0819.4,4.99,0.00,22.3,21.7,00.0,31.4,24.1,08.8,0000.0,0009.94,0003.86,0003.03
2021-12-12 11:29:00,,0819.6,5.00,0.00,22.3,21.7,00.0,31.4,24.0,08.8,0000.0,0009.80,0003.76,0002.92
2021-12-12 11:30:00,,0819.6,5.01,0.00,22.4,21.7,00.0,31.3,24.1,08.8,0000.0,0009.65,0003.68,0002.81
2021-12-12 11:31:00,,0819.6,4.99,0.00,22.4,21.7,00.0,31.3,24.0,08.9,0000.0,0009.28,0003.62,0002.75
2021-12-12 11:32:00,,0819.5,5.00,0.00,22.3,21.7,00.0,31.3,24.0,08.8,0000.0,0009.98,0003.60,0002.72
2021-12-12 11:33:00,,0819.4,5.02,0.00,22.3,21.7,00.0,31.3,24.0,08.9,0000.0,0009.86,0003.60,0002.72
2021-12-12 11:34:00,,0819.4,4.99,0.00,22.3,21.6,00.0,31.3,24.0,08.9,0000.0,0009.06,0003.52,0002.69
2021-12-12 11:35:00,,0819.4,5.02,0.00,22.3,21.7,00.0,31.3,24.0,08.9,0000.0,0008.59,0003.50,0002.67
2021-12-12 11:36:00,,0819.3,4.99,0.00,22.3,21.7,00.0,31.3,24.1,08.9,0000.0,0008.42,0003.48,0002.67
2021-12-12 11:37:00,,0819.3,5.01,0.00,22.3,21.7,00.0,31.3,24.1,08.9,0000.0,0007.74,0003.48,0002.69
2021-12-12 11:38:00,,0819.3,4.99,0.00,22.4,21.7,00.0,31.3,24.1,09.0,0000.0,0007.74,0003.49,0002.68
2021-12-12 11:39:00,,0819.3,5.01,0.00,22.3,21.7,00.0,31.3,24.1,08.7,0000.0,0008.31,0003.50,0002.68
2021-12-12 11:40:00,,0819.4,4.99,0.00,22.3,21.7,00.0,31.3,24.1,08.6,0000.0,0009.27,0003.57,0002.71
2021-12-12 11:41:00,,0819.6,5.01,0.00,22.3,21.7,00.0,31.3,24.1,08.7,0000.0,0009.67,0003.57,0002.75
2021-12-12 11:42:00,,0819.7,5.00,0.00,22.3,21.6,00.0,31.3,24.0,08.6,0000.0,0010.47,0003.65,0002.82
2021-12-12 11:43:00,,0819.7,5.00,0.00,22.2,21.6,00.0,31.3,23.9,08.7,0000.0,0010.35,0003.82,0002.91
2021-12-12 11:44:00,,0819.7,5.01,0.00,22.2,21.5,00.0,31.3,23.8,08.7,0000.0,0010.76,0003.88,0002.99
2021-12-12 11:45:00,,0819.6,5.00,0.00,22.2,21.5,00.0,31.3,23.8,08.6,0000.0,0011.51,0004.01,0003.08
2021-12-12 11:46:00,,0819.5,4.99,0.00,22.2,21.5,00.0,31.3,23.8,08.7,0000.0,0012.02,0004.03,0003.13
2021-12-12 11:47:00,,0819.6,5.00,0.00,22.1,21.4,00.0,31.3,23.8,08.7,0000.0,0013.10,0004.10,0003.18
2021-12-12 11:48:00,,0819.6,4.99,0.00,22.1,21.3,00.0,31.2,23.8,08.6,0000.0,0013.29,0004.17,0003.23
2021-12-12 11:49:00,,0819.5,5.00,0.00,22.1,21.3,00.0,31.2,23.8,08.5,0000.0,0013.65,0004.28,0003.28
2021-12-12 11:50:00,,0819.5,5.00,0.00,22.1,21.3,00.0,31.2,23.8,08.5,0000.0,0013.44,0004.38,0003.32
2021-12-12 11:51:00,,0819.5,5.01,0.00,22.1,21.3,00.0,31.2,23.8,08.5,0000.0,0012.72,0004.43,0003.36
2021-12-12 11:52:00,,0819.5,5.00,0.00,22.1,21.3,00.0,31.2,23.7,08.6,0000.0,0012.88,0004.51,0003.39
2021-12-12 11:53:00,,0819.4,5.00,0.00,22.0,21.3,00.0,31.2,23.7,08.5,0000.0,0012.55,0004.55,0003.40
2021-12-12 11:54:00,,0819.4,5.01,0.00,22.0,21.3,00.0,31.1,23.7,08.5,0000.0,0012.18,0004.45,0003.37
2021-12-12 11:55:00,,0819.4,4.99,0.00,22.0,21.3,00.0,31.1,23.7,08.6,0000.0,0011.77,0004.39,0003.31
2021-12-12 11:56:00,,0819.4,5.01,0.00,22.1,21.4,00.0,31.1,23.8,08.5,0000.0,0011.29,0004.33,0003.28
2021-12-12 11:57:00,,0819.5,5.00,0.00,22.1,21.4,00.0,31.1,23.8,08.6,0000.0,0011.44,0004.34,0003.25
2021-12-12 11:58:00,,0819.5,4.99,0.00,22.1,21.4,00.0,31.1,23.8,08.6,0000.0,0010.45,0004.32,0003.21
2021-12-12 11:59:00,,0819.5,4.99,0.00,22.1,21.4,00.0,31.1,23.8,08.7,0000.0,0010.06,0004.22,0003.15
